Погода в Забужевке

Россия / Курская область     50°57′57″N   35°28′59″E
темп.,
°C
ветер,
м/с
пор.,
м/с
влажн.,
%
обл.,
%
осадки,
мм/ч
давл.,
гПа
погр.,
м
7 марта, вс
вс700:00−6зсз3595100 0.3 1022281
03:00−7з379586 0.3 1022212
06:00−7зюз5109025 0.0 1020271
09:00−5зюз7147438 0.0 1018639
12:00−2юз101670100 0.0 10141108
15:000зюз111777100 0.0 10101231
18:00−1зюз101788100 0.2 10081145
21:000зюз91686100 0.3 10071051
8 марта, пн
пн800:00−1зюз71390100 0.2 1007802
03:00−1з71295100 0.5 1006769
06:00−2зюз61295100 0.4 1006733
09:00−1з61089100 0.9 1006995
12:00−1з71080100 0.3 10081256
15:00−2зсз6875100 0.4 10081225
18:00−3з4982100 0.2 1009549
21:00−5з498991 0.2 1011289
9 марта, вт
вт900:00−6сз498979 0.2 1013327
03:00−9сз489140 0.2 1013261
06:00−10зсз36923 0.0 1015214
09:00−8сз469144 0.1 1017384
12:00−7сз4685100 0.1 1018656
15:00−6сз5779100 0.1 1019865
18:00−8сз4785100 0.1 1020602
21:00−10сз369182 0.1 1022178
10 марта, ср
ср1000:00−11сз229224 0.0 102380
03:00−12ссз229127 0.0 102470
06:00−13с229022 0.0 102572
09:00−11ссв228447 0.0 1026149
12:00−8ссв117364 0.0 1026398
15:00−6св006551 0.0 1026588
18:00−7всв127793 0.0 102552
21:00−9в228388 0.0 102629
11 марта, чт
чт1100:00−8вюв228362 0.0 102737
03:00−9вюв228377 0.0 102830
06:00−9юв23823 0.0 102837
09:00−7ююв36762 0.0 1028241
12:00−3ююз466091 0.0 1028803
15:00−2ю475487 0.0 10261266
18:00−3ю346512 0.0 102595
21:00−4ю511656 0.0 1025224